Biloxi, MS

3:00 PM CDT on June 23, 2017 (GMT -0500)
Keesler Air Force Base

Weather History for KBIX - October, 2013

Change the Weather History Date:

Thursday, October 3, 2013

  Actual Average Record
Temperature  
Mean Temperature 80 °F -  
Max Temperature 87 °F 83 °F 91 °F (1999)
Min Temperature 73 °F 62 °F 48 °F (1974)
Cooling Degree Days 14    
Growing Degree Days 30 (Base 50)    
Moisture  
Dew Point 73 °F    
Average Humidity 86    
Maximum Humidity 100    
Minimum Humidity 64    
Precipitation  
Precipitation 0.02 in - - ()
Sea Level Pressure  
Sea Level Pressure 30.00 in    
Wind  
Wind Speed 8 mph (ESE)    
Max Wind Speed 18 mph    
Max Gust Speed 29 mph    
Visibility 10 miles    
Events Rain    
Averages and records for this station are not official NWS values.
T = Trace of Precipitation, MM = Missing Value Source: NWS Daily Summary

Daily Weather History Graph

Daily Weather History Graph

Search for Another Location

Airport or City:

Trip Planner

Search our weather history database for the weather conditions in past years. The results will help you decide how hot, cold, wet, or windy it might be!

Date:

Astronomy

Oct. 03, 2013 Rise Set
Actual Time 6:50 AM CDT 6:38 PM CDT
Civil Twilight 6:26 AM CDT 7:02 PM CDT
Nautical Twilight 5:58 AM CDT 7:30 PM CDT
Astronomical Twilight 5:30 AM CDT 7:57 PM CDT
Moon 5:27 AM CDT (10/3) 5:45 PM CDT (10/3)
Length of Visible Light 12h 35m
Length of Day
11h 47m
Waning Crescent, 2% of the Moon is Illuminated
Oct 3
Waning Crescent
Oct 4
New
Oct 11
First Quarter
Oct 18
Full
Oct 26
Last Quarter

Hourly Weather History & Observations

Time (CDT) Temp. Heat Index Dew Point Humidity Pressure Visibility Wind Dir Wind Speed Gust Speed Precip Events Conditions
12:13 AM 75.2 °F - 71.6 °F 89% 30.02 in 10.0 mi East 6.9 mph - N/A   Scattered Clouds
12:58 AM 75.4 °F - 72.7 °F 91% 30.02 in 10.0 mi ENE 4.6 mph - N/A   Mostly Cloudy
1:58 AM 75.0 °F - 72.9 °F 93% 30.01 in 10.0 mi ENE 5.8 mph - N/A   Overcast
2:03 AM 75.2 °F - 73.4 °F 94% 30.00 in 10.0 mi ENE 5.8 mph - N/A   Overcast
2:13 AM 75.2 °F - 73.4 °F 94% 29.99 in 10.0 mi East 5.8 mph - N/A   Mostly Cloudy
2:58 AM 74.1 °F - 72.3 °F 94% 29.99 in 10.0 mi NE 6.9 mph - N/A   Partly Cloudy
3:33 AM 73.4 °F - 73.4 °F 100% 29.98 in 10.0 mi NE 5.8 mph - N/A   Mostly Cloudy
3:38 AM 73.4 °F - 71.6 °F 94% 29.98 in 10.0 mi NE 5.8 mph - N/A   Mostly Cloudy
3:43 AM 73.4 °F - 71.6 °F 94% 29.98 in 10.0 mi NE 4.6 mph - N/A   Scattered Clouds
3:58 AM 73.8 °F - 72.3 °F 95% 29.98 in 10.0 mi ENE 5.8 mph - N/A   Scattered Clouds
4:13 AM 73.4 °F - 71.6 °F 94% 29.97 in 10.0 mi NE 4.6 mph - N/A   Mostly Cloudy
4:18 AM 73.4 °F - 73.4 °F 100% 29.97 in 10.0 mi NE 3.5 mph - N/A   Mostly Cloudy
4:33 AM 75.2 °F - 73.4 °F 94% 29.97 in 10.0 mi SE 4.6 mph - N/A   Mostly Cloudy
4:43 AM 75.2 °F - 73.4 °F 94% 29.97 in 10.0 mi East 4.6 mph - N/A   Mostly Cloudy
4:58 AM 74.8 °F - 72.9 °F 94% 29.98 in 10.0 mi ENE 5.8 mph - N/A   Overcast
5:58 AM 73.6 °F - 72.1 °F 95% 29.99 in 10.0 mi NE 4.6 mph - N/A   Partly Cloudy
6:58 AM 73.4 °F - 71.6 °F 94% 30.00 in 10.0 mi ENE 4.6 mph - N/A   Scattered Clouds
7:58 AM 75.0 °F - 72.9 °F 93% 30.02 in 10.0 mi ENE 6.9 mph - N/A   Partly Cloudy
8:55 AM 78.8 °F - 73.8 °F 84% 30.04 in 10.0 mi East 6.9 mph - N/A   Partly Cloudy
9:55 AM 82.9 °F 89.4 °F 73.9 °F 74% 30.06 in 10.0 mi ESE 9.2 mph - N/A   Partly Cloudy
10:55 AM 84.2 °F 91.2 °F 73.9 °F 71% 30.06 in 10.0 mi ESE 12.7 mph - N/A   Scattered Clouds
11:58 AM 86.2 °F 93.8 °F 73.6 °F 66% 30.05 in 10.0 mi SE 15.0 mph - N/A   Clear
12:58 PM 86.5 °F 94.2 °F 73.4 °F 65% 30.03 in 10.0 mi ESE 12.7 mph - N/A   Clear
1:58 PM 86.7 °F 95.0 °F 73.9 °F 66% 30.00 in 10.0 mi SSE 15.0 mph - N/A   Partly Cloudy
2:58 PM 86.5 °F 93.8 °F 73.2 °F 64% 29.99 in 10.0 mi ESE 11.5 mph - N/A   Clear
3:58 PM 85.3 °F 94.6 °F 75.6 °F 73% 29.99 in 10.0 mi SE 18.4 mph 25.3 mph N/A   Partly Cloudy
4:08 PM 80.6 °F 85.4 °F 73.4 °F 79% 29.99 in 10.0 mi SE 17.3 mph 28.8 mph N/A   Mostly Cloudy
4:09 PM 78.8 °F - 73.4 °F 83% 29.99 in 9.0 mi ESE 17.3 mph 28.8 mph N/A Rain Light Rain
4:22 PM 77.0 °F - 73.4 °F 89% 29.99 in 10.0 mi SE 16.1 mph 25.3 mph N/A   Mostly Cloudy
4:58 PM 77.5 °F - 71.6 °F 82% 29.99 in 10.0 mi SE 12.7 mph 24.2 mph 0.00 in   Scattered Clouds
5:28 PM 78.8 °F - 71.6 °F 78% 29.99 in 9.0 mi SE 12.7 mph 20.7 mph N/A Rain Light Rain
5:37 PM 77.0 °F - 71.6 °F 83% 29.99 in 10.0 mi SE 11.5 mph 20.7 mph N/A   Mostly Cloudy
5:58 PM 77.5 °F - 72.1 °F 83% 30.00 in 10.0 mi SE 8.1 mph 17.3 mph 0.00 in   Mostly Cloudy
6:13 PM 77.0 °F - 73.4 °F 89% 30.00 in 7.0 mi SE 15.0 mph 25.3 mph N/A Rain Light Rain
6:26 PM 77.0 °F - 71.6 °F 83% 29.99 in 10.0 mi SE 9.2 mph 20.7 mph N/A   Overcast
6:58 PM 76.6 °F - 71.1 °F 83% 29.99 in 10.0 mi SE 11.5 mph - 0.00 in   Mostly Cloudy
7:58 PM 77.9 °F - 72.1 °F 82% 30.01 in 10.0 mi SSE 6.9 mph - N/A   Overcast
8:58 PM 79.7 °F - 73.8 °F 82% 30.03 in 10.0 mi SE 8.1 mph - N/A   Overcast
9:09 PM 78.8 °F - 73.4 °F 83% 30.03 in 7.0 mi SSE 17.3 mph 24.2 mph N/A Rain Light Rain
9:14 PM 77.0 °F - 73.4 °F 89% 30.03 in 5.0 mi SE 15.0 mph 25.3 mph N/A Rain Light Rain
9:19 PM 77.0 °F - 71.6 °F 83% 30.03 in 5.0 mi SE 9.2 mph 25.3 mph N/A Rain Light Rain
9:24 PM 77.0 °F - 71.6 °F 83% 30.03 in 9.0 mi ESE 9.2 mph 23.0 mph N/A Rain Light Rain
9:28 PM 77.0 °F - 73.4 °F 89% 30.02 in 10.0 mi ESE 6.9 mph - N/A   Scattered Clouds
9:58 PM 78.3 °F - 75.2 °F 90% 30.04 in 10.0 mi ESE 5.8 mph - 0.02 in   Overcast
11:58 PM 78.8 °F - 74.1 °F 85% 30.02 in 10.0 mi South 10.4 mph 17.3 mph N/A   Partly Cloudy